This is the latest recevied weather packets stored in our database for station/object AG7BI. If no packets are shown the sender has not sent any weather packets the latest 10 day(s).
| Time | Temp. | Humidity | Pressure | Rain* | Wind** | Luminosity | Snow |
|---|---|---|---|---|---|---|---|
| 1777661152 | 16.11° C | 67% | 1017.1 hPa | 0 mm | - | - | - |
| 1777660852 | 15.56° C | 72% | 1017.1 hPa | 0 mm | - | - | - |
| 1777660552 | 15.56° C | 68% | 1017.3 hPa | 0 mm | - | - | - |
| 1777660252 | 15.56° C | 71% | 1017.4 hPa | 0 mm | - | - | - |
| 1777659952 | 15° C | 71% | 1017.2 hPa | 0 mm | - | - | - |
| 1777659652 | 15° C | 72% | 1017.4 hPa | 0 mm | - | - | - |
| 1777659352 | 15° C | 70% | 1017.3 hPa | 0 mm | - | - | - |
| 1777659052 | 15° C | 70% | 1017.3 hPa | 0 mm | - | - | - |
| 1777658752 | 15° C | 72% | 1017.5 hPa | 0 mm | - | - | - |
| 1777658452 | 15° C | 69% | 1017.4 hPa | 0 mm | - | - | - |
| 1777658152 | 15° C | 69% | 1017.6 hPa | 0 mm | - | - | - |
| 1777657852 | 14.44° C | 69% | 1017.6 hPa | 0 mm | - | - | - |
| 1777657552 | 14.44° C | 69% | 1017.5 hPa | 0 mm | - | - | - |
| 1777657252 | 14.44° C | 71% | 1017.7 hPa | 0 mm | - | - | - |
| 1777656952 | 14.44° C | 70% | 1017.8 hPa | 0 mm | - | - | - |
| 1777656652 | 14.44° C | 72% | 1017.5 hPa | 0 mm | - | - | - |
| 1777656352 | 14.44° C | 69% | 1017.6 hPa | 0 mm | - | - | - |
| 1777656052 | 13.89° C | 69% | 1017.6 hPa | 0 mm | - | - | - |
| 1777655752 | 13.89° C | 69% | 1017.6 hPa | 0 mm | - | - | - |
| 1777655452 | 13.89° C | 74% | 1017.6 hPa | 0 mm | - | - | - |
| 1777655152 | 13.33° C | 73% | 1017.7 hPa | 0 mm | - | - | - |
| 1777654852 | 13.33° C | 75% | 1017.8 hPa | 0 mm | - | - | - |
| 1777654552 | 13.33° C | 73% | 1017.9 hPa | 0 mm | - | - | - |
| 1777654252 | 13.33° C | 71% | 1017.9 hPa | 0 mm | - | - | - |
| 1777653952 | 12.78° C | 72% | 1017.5 hPa | 0 mm | - | - | - |
* Rain latest hour (hover to see other rain measurements)
** Current wind speed in m/s (hover to see current wind gust speed)